Hanford, WA
on Tuesday, November 6, 2012

Tuesday
Previous Day Next Day
Daily Summary
 ActualAverage (KMWH)Record (KMWH)
Temperature
Mean Temperature °F 41°F  
Max Temperature 60°F 51°F 68°F (2006)
Min Temperature 42°F 31°F 10°F (2003)
Degree Days
Heating Degree Days 14 24  
Month to date heating degree days 137  
Since 1 July heating degree days 774  
Cooling Degree Days 0 0  
Month to date cooling degree days 0  
Year to date cooling degree days 615  
Growing Degree Days1 (Base °F )  
Moisture
Dew Point 43°F   
Average Humidity 75    
Maximum Humidity 96    
Minimum Humidity 54    
Precipitation
Precipitation 0.00 in 0.04 in 0.14 in (1983)
Month to date precipitation 0.22  
Year to date precipitation 6.69  
Wind
Wind Speed 6 mph   
Max Wind Speed 9 mph   
Max Gust Speed mph   
Visibility 15 miles   
Events     

Key: T is trace of precipitation, MM is missing value
Source: NWS Daily Summary
Time(PST)TemperatureDew PointHumidity Pressure Visibility Wind DirectionWind SpeedGust SpeedPrecipitationEvents Conditions
1:50 AM 46.9°F 40.6°F 79% 30.15 in 15.0 miles WNW 8.1 mph - N/A   Overcast
2:50 AM 44.8°F 41.7°F 89% 30.13 in 15.0 miles NNW 5.8 mph - N/A   Overcast
4:50 AM 44.8°F 41.4°F 88% 30.11 in 15.0 miles West 5.8 mph - N/A   Overcast
5:50 AM 42.6°F 41.5°F 96% 30.10 in 15.0 miles SW 6.9 mph - N/A   Overcast
6:50 AM 43.2°F 42.1°F 96% 30.09 in 15.0 miles WSW 6.9 mph - N/A   Overcast
7:50 AM 47.5°F 43.2°F 85% 30.09 in 15.0 miles NW 9.2 mph - N/A   Overcast
8:50 AM 50.2°F 43.5°F 78% 30.07 in 15.0 miles WNW 3.5 mph - N/A   Overcast
9:50 AM 54.1°F 43.9°F 68% 30.06 in 15.0 miles NNE 4.6 mph - N/A   Overcast
10:50 AM 56.8°F 42.4°F 59% 30.04 in 15.0 miles North 4.6 mph - N/A   Overcast
11:50 AM 58.3°F 42.3°F 55% 30.01 in 15.0 miles East 2.3 mph - N/A   Overcast
12:50 PM 59.5°F 43.5°F 55% 29.96 in 15.0 miles East 4.6 mph - N/A   Overcast
1:50 PM 60.4°F 43.7°F 54% 29.94 in 15.0 miles SE 4.6 mph - N/A   Overcast
2:50 PM 59.2°F 44.4°F 58% 29.91 in 15.0 miles SE 5.8 mph - N/A   Overcast
3:50 PM 58.3°F 45.3°F 62% 29.90 in 15.0 miles SE 3.5 mph - N/A   Overcast
4:50 PM 52.3°F 45.0°F 76% 29.79 in 15.0 miles ENE 4.6 mph - N/A   Overcast
5:50 PM 52.0°F 45.0°F 77% 29.88 in 15.0 miles East 2.3 mph - N/A   Overcast
6:50 PM 52.3°F 45.3°F 77% 29.88 in 15.0 miles SE 3.5 mph - N/A   Overcast
9:50 PM 48.7°F 44.8°F 86% 29.90 in 15.0 miles NW 6.9 mph - N/A   Mostly Cloudy
10:50 PM 46.8°F 44.2°F 91% 29.91 in 15.0 miles SSW 5.8 mph - N/A   Overcast
11:50 PM 51.6°F 45.1°F 79% 29.91 in 15.0 miles North 9.2 mph - N/A   Overcast
Moon Phase
Nov. 06 Nov. 06 Nov. 13 Nov. 20 Nov. 28
Sunrise:06:48 AM (PST) Moon Rise:11:24 PM (PST)11/6
Sunset:04:35 PM (PST) Moon Set:12:39 PM (PST)11/6

Copyright © 2014 The Weather Underground, Inc.